Air Sicilia Virtual Airways - Route

Air Sicilia Virtual Airways - SIC040A

( IT ) LICT - 00:00
Vincenzo Florio Airport Trapani-Birgi
TRAPANI ( TPS )
plane_to ( IT ) LICR - 00:00
Reggio Calabria Airport
REGGIO CALABRIA ( REG )

AIRPORT NEAR NAVIGATION AIDS

Type Name Frequency
VORTAC Trapani 108800 KHZ
NDB Trapani 318 KHZ

METAR / TAF
LICT 211655Z 09004KT 9999 FEW018 FEW020CB 24/22 Q1011 RMK BKN BKN080 VIS MIN 9999 WIND THR13 08006KT BLU

RUNWAY INFORMATION

Runway Runway length Runway width Runway elevation Runway displaced threshold Runway heading
13 8852 148 10 0 128
31 8852 148 24 820 308

AIRPORT FREQUENCIES

Type Name Frequency
APP APP 36.23 MHZ
APP APP 119.95 MHZ
GND GND 39.685 MHZ
TWR TWR 119.7 MHZ

AIRPORT NEAR NAVIGATION AIDS

Type Name Frequency
VOR-DME Reggio Calabria 111000 KHZ
NDB Reggio Calabria 325 KHZ

METAR / TAF
LICR 211650Z 25009KT 9999 SCT030 26/22 Q1012
LICR 211100Z 2112/2212 34008KT 9999 SCT030 TEMPO 2112/2118 TSRA BECMG 2116/2118 VRB05KT

RUNWAY INFORMATION

Runway Runway length Runway width Runway elevation Runway displaced threshold Runway heading
11 5574 148 38 0 113
29 5574 148 43 0 293
15 6549 148 84 840 153
33 6549 148 34 164 333

AIRPORT FREQUENCIES

Type Name Frequency
APP APP 120.275 MHZ
TWR TWR 118.25 MHZ

Flightplan

VFR

Air Sicilia Virtual Airways Fleets

AVAILABLE AIRCRAFTS for route at this time in Vincenzo Florio Airport Trapani-Birgi
C172 - Cessna 172 Skyhawk
( US ) CESSNA

Aircraft in fleet: 1

150.164 NM

Distance in nautical miles.

€ 248,00

Ticket price for this flight.

0 h.

Estimated flight time.



07-08-2018
Aerosoft Professional Flight Planner PFPX

PFPX - Professional Flight Planner X - è un nuovo ed innovativo strumento di pianificazione del volo sviluppato da piloti e dispatcher del mondo reale. È un'aggiunta preziosa e realistica alla tua esperienza di simulaz ....


19-07-2018
Aerosoft Oslo X

L'Aeroporto di Oslo-Gardermoen (IATA: OSL, ICAO: ENGM) è il principale aeroporto norvegese e il 19° in Europa, è situato vicino alla cittadina di Ullensaker nella contea di Akershus e serve la capitale Oslo. Ha sostit ....


21-06-2018
Aerosoft Malpensa Professional P3Dv4

L'Aeroporto di Milano-Malpensa (IATA: MXP, ICAO: LIMC) è un aeroporto italiano situato nella provincia di Varese in Lombardia, ma considerato come il principale aeroporto di Milano.

È il secondo aeroporto ital ....


06-06-2018
1° Raduno Air Sicilia Virtual - parla il C.E.O.

Grande successo per il 1° Raduno di Compagnia dell'Air Sicilia Virtual, che ha visto i membri della Crew presenti il 4 giugno 2018 a Thiene ( VI ) , cimentarsi dal vivo con le reali ....


24-05-2018
Aerosoft Airport Rome XP

Tra le nostre recensioni non poteva mancare certo la nuova uscita Aerosoft per X-Plane, stiamo parlando di Airport Rome XP, finalmente un Add-on pay completo dell'Aeroporto di Roma Fiumicino per gli utilizzatori del simu ....